Starlink 33859

operational
NORAD ID: 63640 Int'l Des: 2025-083 Owner: SPXS Country: US Constellation: starlink
LEOCIRCULAR

Über Starlink 33859

Beschreibung wird geladen...

Live-Position

3D-Globus wird geladen...

Nächste Überflüge

Höhenverlauf

Altitude vs Time

uPlot chart will show altitude changes over time

Zweizeiliger Elementsatz

1 63640U 25083G 26034.50033510 .00030550 00000-0 11150-2 0 9992
2 63640 43.0022 198.6779 0001692 259.4367 100.6294 15.27580821 44833
Epoch: 3. Feb. 2026 • Age: 10 hours

Aktueller Status

Höhe 487.2 km
Geschwindigkeit 7.63 km/s
Subsatellitenpunkt 42.93°N, 167.99°W
Startdatum 25. Apr. 2025
Alter 0.7 years
Typ internet

Technische Details

Klassifizierung Payload
Masse 575.00 kg
Trockenmasse 530.00 kg
Gesamtmasse 575.00 kg
Länge 0.30 m
Durchmesser 4.10 m
Spannweite 29.00 m
Form Box + pan
Hersteller SPXS
Bus-Typ Starlink V2MO
Phasenstatus In Orbit
Besitzer/Staat SPXS/US

Große Konstellationen

Loading constellations...